| time (UTC) | temp F | wind direction | speed MPH | gust MPH | rain 1hr in | rain 24hr in | rain mn in | humidity % | barometer mb |
| 20260508224553 | 58 | 0 | 1.0 | 7.0 | 0.00 | 0.00 | 0.00 | 37 | 1009.9 |
| 20260508223050 | 58 | 94 | 0.0 | 8.0 | 0.00 | 0.00 | 0.00 | 36 | 1009.8 |
| 20260508221551 | 58 | 355 | 1.0 | 7.0 | 0.00 | 0.00 | 0.00 | 35 | 1009.9 |
| 20260508220052 | 58 | 281 | 1.0 | 5.0 | 0.00 | 0.00 | 0.00 | 37 | 1009.9 |
| 20260508214601 | 59 | 154 | 2.0 | 6.0 | 0.00 | 0.00 | 0.00 | 36 | 1009.7 |
| 20260508213050 | 61 | 352 | 1.0 | 5.0 | 0.00 | 0.00 | 0.00 | 33 | 1009.5 |
| 20260508211548 | 61 | 159 | 2.0 | 7.0 | 0.00 | 0.00 | 0.00 | 33 | 1009.5 |
| 20260508210055 | 60 | 289 | 1.0 | 4.0 | 0.00 | 0.00 | 0.00 | 35 | 1009.5 |
| 20260508204550 | 60 | 178 | 1.0 | 7.0 | 0.00 | 0.00 | 0.00 | 34 | 1009.3 |
| 20260508203053 | 60 | 0 | 1.0 | 9.0 | 0.00 | 0.00 | 0.00 | 35 | 1009.3 |
| 20260508201549 | 59 | 0 | 1.0 | 6.0 | 0.00 | 0.00 | 0.00 | 36 | 1009.1 |
| 20260508200050 | 60 | 106 | 2.0 | 13.0 | 0.00 | 0.00 | 0.00 | 34 | 1009.2 |
| 20260508194547 | 60 | 256 | 2.0 | 6.0 | 0.00 | 0.00 | 0.00 | 33 | 1009.2 |
| 20260508193102 | 58 | 0 | 2.0 | 8.0 | 0.00 | 0.00 | 0.00 | 36 | 1009.2 |
| 20260508191557 | 58 | 115 | 1.0 | 7.0 | 0.00 | 0.00 | 0.00 | 36 | 1009.3 |
| 20260508190104 | 59 | 311 | 1.0 | 10.0 | 0.00 | 0.00 | 0.00 | 37 | 1009.2 |
| 20260508184559 | 60 | 309 | 2.0 | 6.0 | 0.00 | 0.00 | 0.00 | 34 | 1009.2 |
| 20260508183101 | 59 | 324 | 1.0 | 9.0 | 0.00 | 0.00 | 0.00 | 41 | 1009.3 |
| 20260508181551 | 59 | 129 | 2.0 | 11.0 | 0.00 | 0.00 | 0.00 | 37 | 1009.3 |
| 20260508180105 | 59 | 311 | 3.0 | 10.0 | 0.00 | 0.00 | 0.00 | 36 | 1009.2 |
| 20260508174608 | 59 | 229 | 2.0 | 7.0 | 0.00 | 0.00 | 0.00 | 38 | 1009.1 |
| 20260508173051 | 60 | 321 | 2.0 | 8.0 | 0.00 | 0.00 | 0.00 | 39 | 1009.2 |
| 20260508171551 | 59 | 71 | 2.0 | 7.0 | 0.00 | 0.00 | 0.00 | 35 | 1009.2 |
| 20260508170059 | 59 | 305 | 2.0 | 9.0 | 0.00 | 0.00 | 0.00 | 37 | 1009.1 |
| 20260508164553 | 58 | 113 | 1.0 | 7.0 | 0.00 | 0.00 | 0.00 | 43 | 1009.1 |
| 20260508163051 | 57 | 0 | 0.0 | 4.0 | 0.00 | 0.00 | 0.00 | 43 | 1009.2 |
| 20260508161548 | 57 | 168 | 3.0 | 8.0 | 0.00 | 0.00 | 0.00 | 38 | 1009.5 |
| 20260508160049 | 57 | 198 | 3.0 | 9.0 | 0.00 | 0.00 | 0.00 | 37 | 1009.7 |
| 20260508154553 | 57 | 143 | 2.0 | 7.0 | 0.00 | 0.00 | 0.00 | 46 | 1009.8 |
| 20260508153054 | 58 | 219 | 1.0 | 6.0 | 0.00 | 0.00 | 0.00 | 38 | 1009.8 |
| 20260508151550 | 57 | 194 | 1.0 | 7.0 | 0.00 | 0.00 | 0.00 | 37 | 1009.8 |
| 20260508150051 | 56 | 200 | 1.0 | 9.0 | 0.00 | 0.00 | 0.00 | 38 | 1009.8 |
| 20260508144552 | 55 | 290 | 1.0 | 5.0 | 0.00 | 0.00 | 0.00 | 42 | 1009.8 |
| 20260508143055 | 55 | 278 | 1.0 | 6.0 | 0.00 | 0.00 | 0.00 | 42 | 1010.0 |
| 20260508141554 | 55 | 61 | 2.0 | 10.0 | 0.00 | 0.00 | 0.00 | 39 | 1010.1 |
| 20260508140044 | 54 | 163 | 0.0 | 6.0 | 0.00 | 0.00 | 0.00 | 43 | 1010.5 |
| 20260508134551 | 54 | 142 | 2.0 | 9.0 | 0.00 | 0.00 | 0.00 | 44 | 1010.6 |
| 20260508133048 | 53 | 126 | 1.0 | 6.0 | 0.00 | 0.00 | 0.00 | 45 | 1010.3 |
| 20260508131603 | 52 | 310 | 1.0 | 7.0 | 0.00 | 0.00 | 0.00 | 47 | 1010.4 |
| 20260508130048 | 51 | 352 | 1.0 | 4.0 | 0.00 | 0.00 | 0.00 | 48 | 1010.3 |
| 20260508124551 | 50 | 245 | 1.0 | 6.0 | 0.00 | 0.00 | 0.00 | 49 | 1010.3 |
| 20260508123106 | 49 | 163 | 1.0 | 11.0 | 0.00 | 0.00 | 0.00 | 54 | 1010.6 |
| 20260508121555 | 48 | 144 | 2.0 | 6.0 | 0.00 | 0.00 | 0.00 | 56 | 1010.7 |
| 20260508120106 | 47 | 11 | 0.0 | 4.0 | 0.00 | 0.00 | 0.00 | 58 | 1010.6 |
| 20260508114558 | 45 | 0 | 0.0 | 5.0 | 0.00 | 0.00 | 0.00 | 63 | 1010.5 |
| 20260508113100 | 42 | 57 | 0.0 | 2.0 | 0.00 | 0.00 | 0.00 | 70 | 1010.6 |
| 20260508111551 | 41 | 0 | 0.0 | 1.0 | 0.00 | 0.00 | 0.00 | 76 | 1010.5 |
| 20260508110100 | 39 | 0 | 0.0 | 0.0 | 0.00 | 0.00 | 0.00 | 80 | 1010.4 |
| 20260508104550 | 39 | 0 | 0.0 | 0.0 | 0.00 | 0.00 | 0.00 | 81 | 1010.3 |
| 20260508103102 | 39 | 0 | 0.0 | 0.0 | 0.00 | 0.00 | 0.00 | 81 | 1010.2 |
| 20260508101555 | 38 | 0 | 0.0 | 0.0 | 0.00 | 0.00 | 0.00 | 81 | 1009.9 |
| 20260508100050 | 38 | 0 | 0.0 | 0.0 | 0.00 | 0.00 | 0.00 | 81 | 1009.7 |
| 20260508094548 | 38 | 0 | 0.0 | 0.0 | 0.00 | 0.00 | 0.00 | 81 | 1009.8 |
| 20260508093051 | 38 | 0 | 0.0 | 0.0 | 0.00 | 0.00 | 0.00 | 81 | 1009.6 |
| 20260508091549 | 38 | 0 | 0.0 | 0.0 | 0.00 | 0.00 | 0.00 | 82 | 1009.5 |
| 20260508090058 | 37 | 0 | 0.0 | 1.0 | 0.00 | 0.00 | 0.00 | 82 | 1009.6 |
| 20260508084548 | 37 | 0 | 0.0 | 1.0 | 0.00 | 0.00 | 0.00 | 82 | 1009.4 |
| 20260508083052 | 38 | 0 | 0.0 | 0.0 | 0.00 | 0.00 | 0.00 | 82 | 1009.2 |
| 20260508081554 | 38 | 0 | 0.0 | 0.0 | 0.00 | 0.00 | 0.00 | 81 | 1009.1 |
| 20260508080051 | 38 | 0 | 0.0 | 0.0 | 0.00 | 0.00 | 0.00 | 80 | 1008.8 |
| 20260508074550 | 39 | 0 | 0.0 | 1.0 | 0.00 | 0.01 | 0.00 | 78 | 1008.6 |
| 20260508073049 | 39 | 0 | 0.0 | 0.0 | 0.00 | 0.01 | 0.00 | 78 | 1008.2 |
| 20260508071552 | 39 | 0 | 0.0 | 1.0 | 0.00 | 0.01 | 0.00 | 77 | 1008.4 |
| 20260508070056 | 40 | 0 | 0.0 | 0.0 | 0.00 | 0.01 | 0.00 | 77 | 1008.4 |
| 20260508064548 | 40 | 0 | 0.0 | 0.0 | 0.00 | 0.01 | 0.00 | 75 | 1008.3 |
| 20260508063100 | 40 | 0 | 0.0 | 1.0 | 0.00 | 0.01 | 0.00 | 75 | 1008.3 |
| 20260508061550 | 41 | 0 | 0.0 | 0.0 | 0.00 | 0.01 | 0.00 | 77 | 1008.3 |
| 20260508060049 | 41 | 0 | 0.0 | 1.0 | 0.00 | 0.01 | 0.00 | 78 | 1008.4 |
| 20260508054547 | 42 | 0 | 0.0 | 1.0 | 0.00 | 0.01 | 0.00 | 76 | 1008.6 |
| 20260508053102 | 42 | 0 | 0.0 | 0.0 | 0.00 | 0.01 | 0.00 | 72 | 1008.7 |
| 20260508051548 | 43 | 0 | 0.0 | 0.0 | 0.00 | 0.01 | 0.00 | 72 | 1008.8 |
| 20260508050050 | 44 | 0 | 0.0 | 1.0 | 0.00 | 0.01 | 0.00 | 68 | 1009.0 |
| 20260508044545 | 45 | 0 | 0.0 | 1.0 | 0.00 | 0.04 | 0.00 | 66 | 1009.2 |
| 20260508043058 | 45 | 0 | 0.0 | 0.0 | 0.00 | 0.04 | 0.00 | 65 | 1009.1 |
| 20260508041553 | 46 | 0 | 0.0 | 0.0 | 0.00 | 0.04 | 0.00 | 63 | 1009.1 |
| 20260508040052 | 47 | 0 | 0.0 | 0.0 | 0.00 | 0.04 | 0.00 | 62 | 1009.2 |
| 20260508034554 | 48 | 0 | 0.0 | 1.0 | 0.00 | 0.04 | 0.04 | 60 | 1009.2 |
| 20260508033052 | 48 | 0 | 0.0 | 1.0 | 0.00 | 0.04 | 0.04 | 59 | 1009.2 |
| 20260508031549 | 49 | 0 | 0.0 | 1.0 | 0.00 | 0.04 | 0.04 | 58 | 1008.9 |
| 20260508030053 | 49 | 0 | 0.0 | 4.0 | 0.00 | 0.04 | 0.04 | 59 | 1008.9 |
| 20260508024551 | 49 | 0 | 0.0 | 2.0 | 0.00 | 0.04 | 0.04 | 56 | 1008.8 |
| 20260508023044 | 50 | 0 | 0.0 | 2.0 | 0.00 | 0.04 | 0.04 | 53 | 1008.8 |
| 20260508021555 | 50 | 0 | 0.0 | 1.0 | 0.00 | 0.04 | 0.04 | 53 | 1008.8 |
| 20260508020050 | 51 | 0 | 0.0 | 0.0 | 0.00 | 0.04 | 0.04 | 50 | 1008.7 |
| 20260508014549 | 51 | 13 | 0.0 | 1.0 | 0.00 | 0.04 | 0.04 | 51 | 1008.6 |
| 20260508013056 | 52 | 0 | 0.0 | 2.0 | 0.00 | 0.04 | 0.04 | 47 | 1008.3 |
| 20260508011553 | 52 | 0 | 0.0 | 1.0 | 0.00 | 0.04 | 0.04 | 47 | 1008.2 |
| 20260508010043 | 53 | 0 | 0.0 | 1.0 | 0.00 | 0.04 | 0.04 | 44 | 1007.8 |
| 20260508004547 | 54 | 0 | 0.0 | 2.0 | 0.00 | 0.05 | 0.04 | 43 | 1007.6 |
| 20260508003048 | 55 | 0 | 0.0 | 2.0 | 0.00 | 0.05 | 0.04 | 41 | 1007.5 |
| 20260508001610 | 56 | 0 | 0.0 | 1.0 | 0.00 | 0.05 | 0.04 | 41 | 1007.4 |
| 20260508000048 | 57 | 9 | 1.0 | 5.0 | 0.00 | 0.05 | 0.04 | 36 | 1007.2 |
| 20260507234549 | 57 | 16 | 1.0 | 5.0 | 0.00 | 0.11 | 0.04 | 35 | 1007.1 |
| 20260507233050 | 58 | 0 | 0.0 | 7.0 | 0.00 | 0.11 | 0.04 | 38 | 1007.1 |
| 20260507231550 | 59 | 131 | 1.0 | 5.0 | 0.00 | 0.11 | 0.04 | 36 | 1006.8 |
| 20260507230053 | 59 | 90 | 1.0 | 4.0 | 0.00 | 0.11 | 0.04 | 35 | 1006.8 |